This is the latest recevied weather packets stored in our database for station/object DC0VZ-6. If no packets are shown the sender has not sent any weather packets the latest 10 day(s).
| Time | Temp. | Humidity | Pressure | Rain* | Wind** | Luminosity | Snow |
|---|---|---|---|---|---|---|---|
| 1777663574 | 15.56° C | 5% | 990.9 hPa | 0 mm | - | - | - |
| 1777662974 | 16.11° C | 5% | 990.7 hPa | 0 mm | - | - | - |
| 1777662374 | 16.67° C | 5% | 990.7 hPa | 0 mm | - | - | - |
| 1777661774 | 17.78° C | 5% | 990.8 hPa | 0 mm | - | - | - |
| 1777661174 | 19.44° C | 5% | 990.8 hPa | 0 mm | - | - | - |
| 1777660574 | 20° C | 5% | 990.8 hPa | 0 mm | - | - | - |
| 1777659973 | 20.56° C | 5% | 990.8 hPa | 0 mm | - | - | - |
| 1777659373 | 21.11° C | 5% | 990.8 hPa | 0 mm | - | - | - |
| 1777658773 | 21.67° C | 5% | 990.8 hPa | 0 mm | - | - | - |
| 1777658173 | 21.67° C | 5% | 990.9 hPa | 0 mm | - | - | - |
| 1777656973 | 22.22° C | 5% | 990.9 hPa | 0 mm | - | - | - |
| 1777656373 | 22.78° C | 5% | 990.9 hPa | 0 mm | - | - | - |
| 1777655773 | 22.78° C | 5% | 991.1 hPa | 0 mm | - | - | - |
| 1777655173 | 23.33° C | 5% | 991.1 hPa | 0 mm | - | - | - |
| 1777654573 | 23.33° C | 5% | 991.2 hPa | 0 mm | - | - | - |
| 1777653973 | 23.33° C | 5% | 991.2 hPa | 0 mm | - | - | - |
| 1777653373 | 23.89° C | 5% | 991.6 hPa | 0 mm | - | - | - |
| 1777652773 | 23.33° C | 5% | 991.6 hPa | 0 mm | - | - | - |
| 1777652172 | 23.89° C | 5% | 992.1 hPa | 0 mm | - | - | - |
| 1777651572 | 23.89° C | 5% | 992.1 hPa | 0 mm | - | - | - |
| 1777650972 | 23.89° C | 5% | 992.4 hPa | 0 mm | - | - | - |
| 1777650372 | 23.89° C | 5% | 992.4 hPa | 0 mm | - | - | - |
| 1777649772 | 24.44° C | 5% | 993.1 hPa | 0 mm | - | - | - |
| 1777649172 | 24.44° C | 5% | 993.1 hPa | 0 mm | - | - | - |
| 1777647972 | 24.44° C | 5% | 993.3 hPa | 0 mm | - | - | - |
* Rain latest hour (hover to see other rain measurements)
** Current wind speed in m/s (hover to see current wind gust speed)